Location: Doverdale
(52.2833°N, 2.2000°W)
Time: 03:35:43
(UTC+00:00)

Cosmos 1980 Rocket - Pass Details

Date: 08 March 2021
Orbit: 828 x 851 km, 71.0° (Epoch: 15 April)

Event Time Altitude Azimuth Distance (km) Brightness Sun altitude
Rises 19:20:48 0° 270° (W) 3,410 7.2 -13.0°
Reaches altitude 10° 19:24:04 10° 289° (WNW) 2,480 6.1 -13.5°
Maximum altitude 19:27:56 18° 332° (NNW) 1,963 4.6 -14.0°
Drops below altitude 10° 19:31:49 10° 15° (NNE) 2,491 4.6 -14.6°
Sets 19:35:07 0° 34° (NE) 3,429 5.1 -15.1°
